Starlink 2095

operational
NORAD ID: 47679 Int'l Des: 2021-012 Owner: SPXS Country: US Constellation: starlink
LEOCIRCULAR

About Starlink 2095

Description loading...

Live Position

Loading 3D Globe...

Upcoming Passes

Altitude History

Altitude vs Time

uPlot chart will show altitude changes over time

Two-Line Element Set

1 47679U 21012BM 25306.14303320 .00047109 00000-0 11642-2 0 9998
2 47679 53.0411 244.4084 0004891 115.1504 245.0007 15.40029308261339
Epoch: Nov 2, 2025 • Age: 16 hours

Current Status

Altitude 449.5 km
Velocity 7.65 km/s
Sub-Earth Point 53.14°N, 5.52°W
Launch Date Feb 16, 2021
Age 4.7 years
Type internet

Technical Details

Classification Payload
Mass 260.00 kg
Dry Mass 248.00 kg
Total Mass 260.00 kg
Length 0.20 m
Diameter 2.80 m
Span 9.00 m
Shape Box + pan
Manufacturer SPXS
Bus Type Starlink
Phase Status In Orbit
Owner/State SPXS/US

Large Constellations

Loading constellations...